Tracking 19846 objects as of 19-Sep-2019
HD Live streaming from Space Station
objects crossing your sky now

OPS 7898 (P/L 4)

Track OPS 7898 (P/L 4) now!
10-day predictions
OPS 7898 (P/L 4) is classified as:


NORAD ID: 5682
Int'l Code: 1971-110E
Perigee: 985.5 km
Apogee: 996.3 km
Inclination: 70.0 °
Period: 104.8 minutes
Semi major axis: 7361 km
RCS: Unknown
Launch date: December 14, 1971
Source: United States (US)
Launch site: AIR FORCE WESTERN TEST RANGE (AFWTR)
aabbcc
Your satellite tracking list
Your tracking list is empty




NASA's NSSDC Master Catalog

Two Line Element Set (TLE):
1  5682U 71110E   19261.88097199 -.00000047  00000-0  32847-5 0  9992
2  5682  69.9862  47.4977 0007349   2.8953 357.2176 13.74409984  6681
Source of the keplerian elements: McCants